[[{"header":{"parameterUnit":"m.s-1","parameterCategory":1,"la1":30.2991,"la2":30.254,"lo1":-89.0895,"lo2":-89.0444,"dy":0.0017,"dx":0.0017,"nx":28,"ny":28,"refTime":"2023-10-15T03:00:00:Z","depth":0,"parameterNumber":2,"parameterNumberName":"U-component_of_WINDS"},"data":[0,0,0,0,0,0,0,0,0,0,0,0,0,0,0,0,0,0,0,0,0,0,0,0,0,0,0,0,0,0,0,0,0,0,0,0,0,0,0,0,0,0,0,0,0,0,0,0,0,0,0,0,0,0,0,0,0,0,1.4244,1.4244,0,1.4182,1.4182,1.4181,1.4152,1.4152,1.4152,1.4152,1.4085,1.4084,1.4082,0,0,0,0,0,0,0,0,0,0,0,0,0,1.4335,1.4333,1.4244,1.4244,1.4243,1.4183,1.4182,1.4181,1.4152,1.4152,1.4152,1.4152,1.4086,1.4084,1.4082,0,0,0,0,0,0,0,0,0,0,0,0,0,1.4286,1.4333,1.4245,1.4221,1.4219,1.4183,1.4182,1.4181,1.4152,1.4152,1.4152,1.4152,1.4087,1.4084,1.4081,1.4063,0,0,1.4073,1.4072,0,0,0,0,0,0,0,0,1.4289,1.4283,1.4226,1.4223,1.422,1.4175,1.4189,1.4141,1.4152,1.4177,1.4152,1.4152,1.4115,1.411,1.4098,1.406,1.4057,1.4073,1.4071,1.407,1.4069,0,0,0,0,0,0,0,1.4293,1.4286,1.422,1.4225,1.4221,1.4213,1.4206,1.418,1.4146,1.4175,1.4173,1.4166,1.4113,1.4101,1.4096,1.4056,1.4073,1.407,1.4069,1.4068,1.4,1.3999,0,0,0,0,0,0,1.43,1.4289,1.4222,1.4218,1.4256,1.4211,1.4204,1.4189,1.4147,1.414,1.4166,1.4165,1.4105,1.4099,1.4094,1.4069,1.407,1.4067,1.4066,1.4,1.4,1.3999,0,0,0,0,0,0,1.4302,1.4295,1.4224,1.4253,1.4243,1.421,1.4194,1.4188,1.4175,1.414,1.4133,1.4159,1.4105,1.4098,1.4071,1.4067,1.4066,1.4064,1.4,1.4,1.4,1.4021,0,0,0,0,0,0,1.4305,1.4295,1.4289,1.4253,1.4242,1.4204,1.4193,1.4187,1.4171,1.4169,1.4132,1.4126,1.4105,1.4075,1.4068,1.4063,1.4061,1.4,1.4,1.4,1.402,1.4021,1.4022,0,0,0,0,0,1.4308,1.4296,1.4289,1.4281,1.4233,1.4203,1.4197,1.4174,1.4171,1.4163,1.4141,1.4127,1.4069,1.4073,1.4065,1.4058,1.4,1.4,1.4,1.402,1.4021,1.4022,0,0,0,0,0,0,1.4331,1.4291,1.4282,1.4258,1.4235,1.4199,1.4188,1.4176,1.4151,1.415,1.4122,1.4114,1.409,1.4071,1.4077,1.4038,1.4033,1.4031,1.4051,1.4052,1.4053,1.4058,1.4059,0,0,0,0,0,1.4334,1.4314,1.428,1.4262,1.4251,1.4222,1.4208,1.4193,1.4166,1.4156,1.4131,1.4105,1.4081,1.4066,1.4041,1.4018,1.4009,1.4009,1.401,1.4011,1.401,1.3996,1.3996,1.3998,1.3998,1.3998,0,0,1.4338,1.4314,1.4303,1.4266,1.4246,1.4225,1.4213,1.4192,1.4176,1.4152,1.4126,1.4107,1.4076,1.4051,1.4039,1.4035,1.4007,1.4011,1.4012,1.401,1.3995,1.3995,1.3995,1.3998,1.3998,1.3998,0,0,1.4336,1.4316,1.4299,1.4279,1.4249,1.423,1.4226,1.4192,1.4179,1.4153,1.4134,1.4115,1.4074,1.4053,1.4037,1.4028,1.4014,1.4021,1.4025,1.4012,1.4012,1.4012,1.4008,1.4007,1.402,1.402,1.402,0,1.4344,1.4314,1.4291,1.4271,1.4256,1.4234,1.4217,1.4198,1.4162,1.4151,1.4148,1.4096,1.4074,1.4044,1.4042,1.403,1.4024,1.4025,1.4014,1.4014,1.4013,1.4009,1.4008,1.4021,1.402,1.402,1.402,0,1.4326,1.4305,1.4295,1.4262,1.4245,1.4226,1.42,1.4185,1.4172,1.4153,1.4126,1.4099,1.4069,1.4061,1.4047,1.4029,1.4028,1.402,1.4014,1.4014,1.401,1.4009,1.4022,1.4022,1.4021,1.4021,0,0,1.4335,1.4291,1.4287,1.4272,1.4238,1.4221,1.4201,1.4174,1.4161,1.4137,1.4119,1.4086,1.4079,1.4061,1.4044,1.4033,1.4027,1.4026,1.4025,1.4027,1.4006,1.4012,1.4011,1.4018,1.4018,1.4018,1.4008,0,1.4328,1.4293,1.4272,1.4245,1.4225,1.4205,1.4188,1.4165,1.4147,1.4127,1.4107,1.4084,1.4076,1.4065,1.4053,1.4031,1.4023,1.4031,1.4001,1.4,1.4009,1.4008,1.4014,1.4007,1.4007,1.4006,1.4006,0,1.4314,1.4292,1.4263,1.4232,1.4223,1.4208,1.4181,1.4162,1.4136,1.4124,1.4104,1.4088,1.4066,1.4062,1.4031,1.4037,1.4024,1.4011,1.401,1.4006,1.4003,1.4004,1.4004,1.4002,1.4004,1.4004,1.4004,0,1.4324,1.4286,1.4264,1.4252,1.4215,1.4205,1.4189,1.4163,1.4147,1.4123,1.4113,1.4087,1.4072,1.4052,1.4029,1.4028,1.4,1.3994,1.3988,1.3989,1.3982,1.3983,1.398,1.3975,1.3975,1.3975,1.3975,0,1.4317,1.43,1.4268,1.4254,1.4235,1.4211,1.4192,1.4175,1.4151,1.4134,1.4114,1.4098,1.4069,1.4048,1.403,1.4007,1.4001,1.399,1.3985,1.3991,1.3992,1.3981,1.3981,1.3975,1.3975,1.3975,1.3975,0,1.4324,1.4302,1.4276,1.4244,1.4236,1.4223,1.4194,1.418,1.4162,1.414,1.4133,1.4104,1.4079,1.4054,1.4021,1.4008,1.3985,1.3979,1.3995,1.3992,1.3987,1.3988,1.3976,1.3973,1.3971,1.3971,1.3971,0,1.4321,1.4307,1.4274,1.4262,1.4247,1.4226,1.4211,1.4187,1.4172,1.4141,1.4131,1.4105,1.4083,1.4044,1.4019,1.3994,1.3986,1.3984,1.3982,1.3989,1.3986,1.3987,1.3985,1.3984,1.3985,1.3985,1.3985,0,1.4318,1.4308,1.4287,1.4263,1.4245,1.4225,1.4203,1.4194,1.4166,1.415,1.4125,1.4108,1.4074,1.4049,1.402,1.4003,1.3989,1.3986,1.3983,1.3989,1.3998,1.3993,1.3996,1.3986,1.3986,1.3986,1.3986,1.3986,1.4319,1.4307,1.4282,1.4259,1.4241,1.4222,1.4207,1.4187,1.4167,1.4138,1.4125,1.41,1.4074,1.4035,1.4018,1.3998,1.3994,1.399,1.3989,1.3988,1.3989,1.4002,1.3992,1.3992,1.3992,1.3992,1.3992,0,1.4315,1.4298,1.4278,1.4249,1.4232,1.4222,1.4198,1.4183,1.4162,1.4139,1.4119,1.409,1.4066,1.404,1.4013,1.4002,1.3995,1.3996,1.3996,1.3992,1.3994,1.3999,1.4002,1.4002,1.4002,1.4002,1.4002,1.4002,1.4311,1.4289,1.4276,1.4245,1.4228,1.4204,1.4191,1.4173,1.4155,1.4125,1.4105,1.4088,1.4064,1.4036,1.4013,1.4006,1.3997,1.4,1.3991,1.3993,1.3992,1.3991,1.3996,1.3998,1.3998,1.399,1.399,1.399]},{"header":{"parameterUnit":"m.s-1","parameterCategory":1,"la1":30.2991,"la2":30.254,"lo1":-89.0895,"lo2":-89.0444,"dy":0.0017,"dx":0.0017,"nx":28,"ny":28,"refTime":"2023-10-15T03:00:00:Z","depth":0,"parameterNumber":3,"parameterNumberName":"V-component_of_WINDS"},"data":[0,0,0,0,0,0,0,0,0,0,0,0,0,0,0,0,0,0,0,0,0,0,0,0,0,0,0,0,0,0,0,0,0,0,0,0,0,0,0,0,0,0,0,0,0,0,0,0,0,0,0,0,0,0,0,0,0,0,-4.9106,-4.9108,0,-4.929,-4.9292,-4.9294,-4.9215,-4.921,-4.9206,-4.9202,-4.9387,-4.9396,-4.9405,0,0,0,0,0,0,0,0,0,0,0,0,0,-4.8683,-4.8691,-4.9106,-4.9108,-4.9111,-4.929,-4.9292,-4.9295,-4.9216,-4.921,-4.9205,-4.92,-4.9384,-4.9395,-4.9406,0,0,0,0,0,0,0,0,0,0,0,0,0,-4.8867,-4.8694,-4.9106,-4.9093,-4.9093,-4.9289,-4.9292,-4.9296,-4.9217,-4.921,-4.9203,-4.9197,-4.9381,-4.9394,-4.9407,-4.9626,0,0,-4.9449,-4.9455,0,0,0,0,0,0,0,0,-4.8857,-4.8882,-4.9092,-4.9094,-4.9095,-4.9223,-4.9211,-4.9406,-4.9219,-4.917,-4.9202,-4.9194,-4.9338,-4.9354,-4.9404,-4.9634,-4.9642,-4.945,-4.9458,-4.9464,-4.9468,0,0,0,0,0,0,0,-4.8844,-4.8874,-4.9179,-4.9095,-4.9097,-4.9077,-4.9096,-4.9248,-4.9289,-4.9174,-4.9168,-4.9191,-4.9337,-4.9391,-4.9407,-4.9645,-4.945,-4.9462,-4.947,-4.9476,-5.0064,-5.0071,0,0,0,0,0,0,-4.8832,-4.8864,-4.9173,-4.9184,-4.8957,-4.909,-4.9111,-4.9189,-4.9287,-4.9296,-4.9197,-4.9187,-4.9371,-4.9391,-4.9414,-4.9676,-4.9464,-4.9477,-4.9485,-5.0057,-5.0066,-5.0074,0,0,0,0,0,0,-4.8823,-4.886,-4.9165,-4.9023,-4.906,-4.9104,-4.9192,-4.9196,-4.9249,-4.9305,-4.9311,-4.9244,-4.9366,-4.9394,-4.9574,-4.9682,-4.9483,-4.9496,-5.0048,-5.006,-5.007,-5.0203,0,0,0,0,0,0,-4.8811,-4.8857,-4.8941,-4.9025,-4.9068,-4.9324,-4.9199,-4.9204,-4.9273,-4.9262,-4.9351,-4.9359,-4.9363,-4.9554,-4.9587,-4.9697,-4.9506,-5.0039,-5.0053,-5.0066,-5.0189,-5.0218,-5.0242,0,0,0,0,0,-4.8796,-4.8971,-4.8946,-4.8984,-4.9174,-4.933,-4.9355,-4.9357,-4.9282,-4.9367,-4.9403,-4.9356,-4.9664,-4.9573,-4.961,-4.9725,-5.0032,-5.0049,-5.0065,-5.0178,-5.0212,-5.0241,0,0,0,0,0,0,-4.8897,-4.8982,-4.8955,-4.9162,-4.924,-4.9317,-4.9424,-4.9393,-4.9492,-4.9478,-4.9474,-4.9495,-4.9681,-4.972,-4.9617,-4.9942,-4.9836,-4.9861,-4.9909,-4.9942,-4.9968,-4.9955,-4.9518,0,0,0,0,0,-4.8944,-4.9064,-4.9131,-4.9307,-4.9348,-4.9379,-4.9447,-4.9442,-4.9522,-4.9554,-4.9603,-4.9681,-4.9795,-4.9871,-4.9979,-5.0194,-5.0213,-5.0292,-5.0318,-5.0339,-5.0361,-5.0478,-5.0514,-5.0129,-5.0129,-5.0128,0,0,-4.9041,-4.9102,-4.9178,-4.9329,-4.9389,-4.9513,-4.9407,-4.9543,-4.9635,-4.9574,-4.9747,-4.9786,-4.9873,-5.0072,-5.0162,-5.011,-5.0471,-5.036,-5.0377,-5.0387,-5.0499,-5.0536,-5.0568,-5.014,-5.0138,-5.0136,0,0,-4.9282,-4.934,-4.9494,-4.9556,-4.9648,-4.9668,-4.9705,-4.9787,-4.981,-4.9984,-4.9941,-5.005,-5.0246,-5.0311,-5.0369,-5.0635,-5.0596,-5.067,-5.0807,-5.0921,-5.0951,-5.0978,-5.1074,-5.1108,-5.0691,-5.0691,-5.0692,0,-4.9391,-4.9578,-4.9576,-4.9717,-4.9784,-4.9736,-4.9891,-4.9951,-5.0073,-5.0121,-5.0062,-5.0308,-5.0363,-5.0577,-5.0642,-5.069,-5.0732,-5.066,-5.0947,-5.0974,-5.0999,-5.109,-5.1126,-5.07,-5.0699,-5.0698,-5.0697,0,-4.9707,-4.9838,-4.995,-5.0071,-5.0151,-5.0298,-5.0319,-5.04,-5.0388,-5.0413,-5.0591,-5.0655,-5.0776,-5.0826,-5.0815,-5.1038,-5.1004,-5.0947,-5.0841,-5.1045,-5.113,-5.1165,-5.0712,-5.0709,-5.0706,-5.0704,0,0,-5.0018,-5.0137,-5.0178,-5.0233,-5.033,-5.0431,-5.0575,-5.0694,-5.0764,-5.085,-5.0971,-5.1138,-5.1086,-5.1153,-5.1148,-5.1248,-5.1456,-5.1179,-5.118,-5.1229,-5.1706,-5.175,-5.1791,-5.143,-5.1437,-5.1442,-5.1699,0,-5.0267,-5.0522,-5.0525,-5.0759,-5.0879,-5.0834,-5.096,-5.1033,-5.1061,-5.1166,-5.1196,-5.1316,-5.1237,-5.1277,-5.1374,-5.141,-5.1552,-5.1391,-5.1542,-5.1548,-5.1524,-5.1835,-5.1882,-5.2122,-5.1733,-5.1738,-5.1743,0,-5.0592,-5.069,-5.0936,-5.1017,-5.1067,-5.1181,-5.129,-5.1392,-5.1473,-5.1486,-5.1561,-5.1541,-5.1688,-5.1577,-5.1779,-5.167,-5.1731,-5.1758,-5.1767,-5.1782,-5.1659,-5.186,-5.2198,-5.2235,-5.1795,-5.1791,-5.1787,0,-5.0795,-5.0988,-5.1161,-5.1208,-5.1307,-5.1387,-5.1432,-5.1507,-5.1579,-5.1674,-5.1721,-5.1831,-5.1892,-5.1978,-5.1988,-5.1907,-5.2191,-5.2081,-5.2206,-5.2207,-5.2269,-5.2266,-5.2624,-5.2308,-5.2307,-5.2306,-5.2305,0,-5.1074,-5.1227,-5.1253,-5.136,-5.1529,-5.1531,-5.1698,-5.1735,-5.1803,-5.1915,-5.1882,-5.1988,-5.1995,-5.2103,-5.2112,-5.2278,-5.2305,-5.232,-5.232,-5.2324,-5.2322,-5.2365,-5.2349,-5.2316,-5.2314,-5.2312,-5.231,0,-5.133,-5.1354,-5.154,-5.1618,-5.1641,-5.1763,-5.1829,-5.193,-5.1954,-5.2097,-5.213,-5.2168,-5.2294,-5.2313,-5.246,-5.2466,-5.2665,-5.2648,-5.2639,-5.2637,-5.2761,-5.275,-5.3161,-5.3215,-5.2862,-5.2865,-5.2868,0,-5.1507,-5.1624,-5.1715,-5.1788,-5.1838,-5.1956,-5.2029,-5.2034,-5.2112,-5.2214,-5.2303,-5.2426,-5.2524,-5.2728,-5.2768,-5.288,-5.2866,-5.3002,-5.2883,-5.2882,-5.2869,-5.2863,-5.2875,-5.3026,-5.3029,-5.3033,-5.3035,0,-5.1819,-5.1825,-5.1933,-5.2045,-5.2134,-5.2222,-5.2305,-5.2367,-5.2383,-5.2471,-5.2601,-5.2677,-5.2828,-5.295,-5.3062,-5.3106,-5.3075,-5.3072,-5.3107,-5.3113,-5.3103,-5.3111,-5.2703,-5.3063,-5.306,-5.3058,-5.3057,-5.3056,-5.2042,-5.2144,-5.2224,-5.2345,-5.2408,-5.2487,-5.2586,-5.2623,-5.2732,-5.2856,-5.2852,-5.2994,-5.3072,-5.3219,-5.3271,-5.3381,-5.3337,-5.3388,-5.3401,-5.3413,-5.3426,-5.3084,-5.3401,-5.3401,-5.34,-5.3399,-5.3399,0,-5.2353,-5.2403,-5.2514,-5.2632,-5.2727,-5.2689,-5.2779,-5.2861,-5.2987,-5.3063,-5.3161,-5.331,-5.3428,-5.3478,-5.3594,-5.3673,-5.3661,-5.3704,-5.3698,-5.3709,-5.3459,-5.3418,-5.3711,-5.3711,-5.3711,-5.3711,-5.3711,-5.3711,-5.2527,-5.2698,-5.2713,-5.2915,-5.2962,-5.3103,-5.3158,-5.323,-5.3291,-5.3458,-5.3557,-5.3589,-5.3655,-5.3776,-5.3882,-5.3894,-5.3939,-5.3988,-5.3993,-5.3758,-5.3727,-5.3697,-5.3658,-5.3997,-5.3998,-5.4234,-5.4237,-5.4238]}]]